User: anonymous   Login
Location: Three Oaks Observatory
(31.1535°N, 83.5955°W)
Time: 00:39:42
(UTC-05:00)
Language:

AO-92 - Orbit

View from above orbital plane
View from above orbital plane
View from above satellite
View from above satellite

Ground track
Ground track

The orbit data is extracted from the following two-line orbital elements,

1 43137U 18004AC  19322.65751477  .00000917  00000-0  41132-4 0  9992
2 43137  97.4720  30.0004 0010879  81.9637 278.2834 15.23718313102781
Epoch (UTC): 18 November 2019 15:46:49
Eccentricity: 0.0010879
inclination: 97.4720°
perigee height: 487 km
apogee height: 502 km
right ascension of ascending node: 30.0004°
argument of perigee: 81.9637°
revolutions per day: 15.23718313
mean anomaly at epoch: 278.2834°
orbit number at epoch: 10278

The dashed part of the orbit path shows where the satellite is in the earth's shadow,  

DLR